Location: Asheville, NC
(35.6000°N, 82.5500°W)
Time: 06:11:45
(UTC-04:00)

O/OREOS (USA 219) - Visible Passes

Search period start: 22 July 2018 00:00
Search period end: 01 August 2018 00:00
Orbit: 621 x 646 km, 72.0° (Epoch: 22 May)

Date Brightness Start Highest point End Pass type
(mag) Time Alt. Az. Time Alt. Az. Time Alt. Az.
22 Jul ? 21:09:50 10° NNW 21:14:17 73° WSW 21:18:44 10° SSE visible
23 Jul ? 21:32:20 10° NW 21:36:11 29° WSW 21:40:01 10° SSW visible
24 Jul ? 21:56:18 10° WNW 21:57:55 12° W 21:59:32 10° WSW visible
27 Jul ? 21:24:03 10° W 21:24:40 10° W 21:25:17 10° WSW visible
